Terminal Aerodrome Forecast
Issued by NWS

Home | Current Version | Previous Version | Text Only | Print | Product List | Glossary On
Versions: 1 2 3 4 5 6 7 8 9 10 11 12 13 14 15 16 17 18 19 20 21 22
608
FTUS44 KBMX 261128 CCA
TAFTOI
TAF COR
KTOI 261128Z 2612/2712 15004KT 4SM BR SCT007 OVC015
     FM261600 18007KT P6SM OVC025
     FM261800 19010KT P6SM BKN050
     FM270700 15002KT 4SM BR BKN007
     FM271000 00000KT 1SM BR OVC004=

USA.gov is the U.S. government's official web portal to all federal, state and local government web resources and services.